Location: Betpouey
(42.8833°N, 0.0333°E)
Time: 04:41:07
(UTC+00:00)

Meteor 2-13 Rocket - Pass Details

Date: 25 June 2021
Orbit: 935 x 958 km, 82.5° (Epoch: 26 July)

Event Time Altitude Azimuth Distance (km) Brightness Sun altitude
Exits shadow 00:03:14 51° 167° (SSE) 1,189 4.5 -23.7°
Maximum altitude 00:04:51 77° 96° (E) 988 4.4 -23.7°
Drops below altitude 10° 00:11:02 10° 11° (NNE) 2,698 7.9 -23.7°
Sets 00:13:32 0° 10° (N) 3,646 8.9 -23.7°
